QPF
0.12 0.12 0.13 0.15 0.15 0.14 0.14 0.13 0.10 0.09 0.07 0.05 0.04 0.03 0.02 0.02 0.03 0.03 0.04 0.08 0.09 0.09 0.12 0.11 0.08 0.06 0.04 0.02 0.01 0.01 0.01 0.01 0.01 0.01 0.01 0.01 0.00 0.00 0.00 0.00 0.00 0.01 0.00
0.08 0.07 0.08 0.09 0.10 0.10 0.09 0.09 0.08 0.09 0.09 0.08 0.05 0.04 0.04 0.04 0.05 0.05 0.06 0.09 0.11 0.11 0.12 0.13 0.12 0.10 0.08 0.04 0.02 0.02 0.01 0.01 0.01 0.01 0.01 0.01 0.00 0.00 0.00 0.00 0.00 0.00 0.00
0.05 0.05 0.06 0.06 0.07 0.10 0.09 0.08 0.08 0.08 0.10 0.10 0.08 0.07 0.07 0.07 0.06 0.07 0.09 0.10 0.09 0.12 0.16 0.17 0.16 0.13 0.11 0.10 0.06 0.03 0.02 0.02 0.01 0.01 0.01 0.01 0.00 0.00 0.00 0.00 0.00 0.00 0.00
0.06 0.06 0.06 0.06 0.05 0.07 0.07 0.06 0.06 0.07 0.09 0.10 0.11 0.11 0.09 0.08 0.06 0.06 0.08 0.08 0.08 0.07 0.12 0.18 0.20 0.17 0.14 0.14 0.14 0.09 0.04 0.03 0.02 0.01 0.01 0.02 0.01 0.00 0.00 0.00 0.00 0.00 0.00
0.05 0.05 0.05 0.04 0.03 0.04 0.05 0.05 0.04 0.04 0.06 0.06 0.07 0.07 0.07 0.08 0.09 0.08 0.07 0.07 0.07 0.06 0.07 0.13 0.18 0.19 0.17 0.15 0.14 0.12 0.09 0.05 0.03 0.03 0.02 0.01 0.01 0.01 0.00 0.00 0.00 0.00 0.00
0.03 0.03 0.04 0.04 0.04 0.04 0.03 0.04 0.04 0.04 0.03 0.04 0.04 0.04 0.03 0.04 0.05 0.06 0.06 0.08 0.08 0.07 0.06 0.08 0.11 0.14 0.17 0.19 0.18 0.17 0.14 0.11 0.06 0.04 0.03 0.01 0.01 0.01 0.01 0.00 0.00 0.00 0.00
0.02 0.03 0.02 0.03 0.03 0.03 0.04 0.04 0.03 0.03 0.02 0.02 0.02 0.02 0.02 0.03 0.04 0.05 0.05 0.06 0.08 0.09 0.08 0.07 0.08 0.08 0.11 0.16 0.19 0.21 0.19 0.17 0.11 0.06 0.04 0.03 0.02 0.01 0.01 0.01 0.00 0.00 0.00
0.01 0.01 0.01 0.01 0.01 0.02 0.03 0.03 0.02 0.03 0.02 0.03 0.04 0.04 0.02 0.02 0.02 0.03 0.02 0.02 0.04 0.07 0.09 0.08 0.07 0.06 0.06 0.08 0.09 0.16 0.22 0.22 0.19 0.13 0.08 0.05 0.03 0.02 0.01 0.01 0.00 0.00 0.00
0.00 0.00 0.00 0.01 0.01 0.01 0.01 0.01 0.01 0.01 0.02 0.03 0.05 0.06 0.04 0.02 0.02 0.02 0.02 0.03 0.03 0.04 0.05 0.05 0.06 0.06 0.06 0.07 0.06 0.10 0.16 0.20 0.22 0.21 0.18 0.13 0.09 0.06 0.04 0.02 0.01 0.01 0.00
0.00 0.00 0.00 0.00 0.00 0.00 0.00 0.00 0.01 0.00 0.00 0.01 0.03 0.05 0.06 0.04 0.03 0.02 0.02 0.02 0.03 0.04 0.05 0.04 0.04 0.05 0.05 0.05 0.05 0.06 0.09 0.14 0.19 0.24 0.24 0.19 0.14 0.09 0.06 0.03 0.02 0.01 0.01
0.00 0.00 0.00 0.00 0.00 0.00 0.00 0.00 0.00 0.00 0.00 0.01 0.01 0.02 0.03 0.04 0.05 0.03 0.02 0.02 0.02 0.03 0.04 0.04 0.04 0.04 0.05 0.05 0.05 0.04 0.06 0.09 0.11 0.18 0.22 0.24 0.20 0.12 0.08 0.06 0.04 0.03 0.02
0.00 0.00 0.00 0.00 0.00 0.00 0.00 0.00 0.00 0.00 0.00 0.00 0.00 0.00 0.01 0.01 0.03 0.03 0.02 0.02 0.02 0.02 0.02 0.02 0.03 0.04 0.04 0.05 0.05 0.06 0.07 0.07 0.07 0.10 0.15 0.20 0.22 0.20 0.13 0.09 0.07 0.05 0.04
0.00 0.00 0.00 0.00 0.00 0.00 0.00 0.00 0.00 0.00 0.00 0.00 0.00 0.00 0.00 0.00 0.01 0.02 0.02 0.02 0.01 0.01 0.01 0.01 0.01 0.02 0.03 0.03 0.04 0.07 0.08 0.07 0.08 0.08 0.09 0.13 0.16 0.18 0.18 0.13 0.10 0.08 0.07
0.00 0.00 0.00 0.00 0.00 0.00 0.00 0.00 0.00 0.00 0.00 0.00 0.00 0.00 0.00 0.00 0.00 0.00 0.01 0.01 0.01 0.01 0.00 0.00 0.01 0.01 0.03 0.04 0.04 0.05 0.06 0.07 0.07 0.08 0.09 0.10 0.12 0.13 0.14 0.14 0.12 0.10 0.09
0.00 0.00 0.00 0.00 0.00 0.00 0.00 0.00 0.00 0.00 0.00 0.00 0.00 0.00 0.00 0.00 0.00 0.00 0.00 0.00 0.00 0.00 0.00 0.01 0.01 0.01 0.01 0.02 0.04 0.04 0.03 0.05 0.06 0.06 0.07 0.08 0.09 0.10 0.11 0.11 0.11 0.09 0.07
0.00 0.00 0.00 0.00 0.00 0.00 0.00 0.00 0.00 0.00 0.00 0.00 0.00 0.00 0.00 0.00 0.00 0.00 0.00 0.00 0.00 0.00 0.00 0.00 0.00 0.01 0.01 0.01 0.02 0.02 0.02 0.04 0.05 0.05 0.05 0.07 0.08 0.08 0.08 0.09 0.09 0.09 0.07
0.00 0.00 0.00 0.00 0.00 0.00 0.00 0.00 0.00 0.00 0.00 0.00 0.00 0.00 0.00 0.00 0.00 0.00 0.00 0.00 0.00 0.00 0.00 0.00 0.00 0.00 0.00 0.00 0.01 0.01 0.02 0.02 0.03 0.04 0.05 0.05 0.07 0.08 0.08 0.07 0.07 0.07 0.07
0.00 0.00 0.00 0.00 0.00 0.00 0.00 0.00 0.00 0.00 0.00 0.00 0.00 0.00 0.00 0.00 0.00 0.00 0.00 0.00 0.00 0.00 0.00 0.00 0.00 0.00 0.00 0.00 0.01 0.01 0.02 0.02 0.02 0.03 0.04 0.04 0.05 0.06 0.08 0.07 0.06 0.07 0.08
0.00 0.00 0.00 0.00 0.00 0.00 0.00 0.00 0.00 0.00 0.00 0.00 0.00 0.00 0.00 0.00 0.00 0.00 0.00 0.00 0.00 0.00 0.00 0.00 0.00 0.00 0.00 0.00 0.01 0.01 0.01 0.02 0.02 0.03 0.03 0.04 0.04 0.04 0.05 0.06 0.06 0.05 0.06
0.00 0.00 0.00 0.00 0.00 0.00 0.00 0.00 0.00 0.00 0.00 0.00 0.00 0.00 0.00 0.00 0.00 0.00 0.00 0.00 0.00 0.00 0.00 0.01 0.00 0.00 0.00 0.00 0.01 0.01 0.01 0.01 0.02 0.02 0.03 0.04 0.04 0.05 0.05 0.04 0.04 0.04 0.05
0.00 0.00 0.00 0.00 0.00 0.00 0.00 0.00 0.00 0.00 0.00 0.00 0.00 0.00 0.00 0.00 0.00 0.00 0.00 0.00 0.00 0.01 0.00 0.00 0.00 0.00 0.00 0.00 0.01 0.01 0.01 0.01 0.02 0.02 0.02 0.02 0.03 0.04 0.04 0.04 0.04 0.04 0.03
0.00 0.00 0.00 0.00 0.00 0.00 0.00 0.00 0.00 0.00 0.00 0.00 0.00 0.00 0.00 0.00 0.00 0.00 0.00 0.00 0.01 0.01 0.01 0.01 0.01 0.01 0.01 0.01 0.01 0.01 0.01 0.01 0.02 0.02 0.03 0.03 0.03 0.03 0.03 0.03 0.03 0.04 0.03
0.00 0.00 0.00 0.00 0.00 0.00 0.00 0.00 0.00 0.00 0.00 0.00 0.00 0.00 0.00 0.00 0.00 0.00 0.00 0.00 0.00 0.01 0.02 0.02 0.01 0.01 0.01 0.01 0.01 0.01 0.01 0.01 0.01 0.02 0.04 0.04 0.04 0.03 0.02 0.03 0.04 0.04 0.04
0.00 0.00 0.00 0.00 0.00 0.00 0.00 0.00 0.00 0.00 0.00 0.00 0.00 0.00 0.00 0.00 0.00 0.00 0.00 0.00 0.00 0.00 0.01 0.01 0.01 0.01 0.02 0.01 0.01 0.01 0.01 0.02 0.02 0.02 0.04 0.04 0.04 0.04 0.03 0.03 0.03 0.03 0.04
0.00 0.00 0.00 0.00 0.00 0.00 0.00 0.00 0.00 0.00 0.00 0.00 0.00 0.00 0.00 0.00 0.00 0.00 0.00 0.00 0.00 0.00 0.01 0.01 0.01 0.02 0.02 0.01 0.01 0.01 0.02 0.02 0.02 0.02 0.03 0.04 0.05 0.05 0.05 0.04 0.04 0.04 0.03
0.00 0.00 0.00 0.00 0.00 0.00 0.00 0.00 0.00 0.00 0.00 0.00 0.00 0.00 0.00 0.00 0.00 0.00 0.00 0.00 0.00 0.00 0.01 0.01 0.01 0.02 0.02 0.02 0.01 0.01 0.02 0.02 0.03 0.03 0.03 0.04 0.06 0.07 0.07 0.07 0.06 0.05 0.04
MSLP
1018.09 1018.13 1018.10 1018.05 1018.02 1018.04 1018.12 1018.25 1018.40 1018.53 1018.60 1018.60 1018.52 1018.39 1018.25 1018.13 1018.07 1018.08 1018.18 1018.34 1018.56 1018.79 1019.04 1019.28 1019.52 1019.77 1020.04 1020.33 1020.65 1020.99 1021.34 1021.68 1022.01 1022.33 1022.63 1022.92 1023.21 1023.51 1023.82 1024.12 1024.41 1024.68 1024.91
1018.29 1018.33 1018.30 1018.26 1018.23 1018.25 1018.32 1018.45 1018.59 1018.71 1018.79 1018.79 1018.71 1018.58 1018.41 1018.25 1018.14 1018.09 1018.13 1018.23 1018.39 1018.59 1018.81 1019.04 1019.27 1019.53 1019.79 1020.08 1020.40 1020.73 1021.07 1021.42 1021.77 1022.11 1022.44 1022.77 1023.11 1023.45 1023.78 1024.11 1024.41 1024.69 1024.94
1018.43 1018.49 1018.49 1018.47 1018.47 1018.50 1018.58 1018.70 1018.84 1018.95 1019.02 1019.01 1018.93 1018.78 1018.59 1018.40 1018.23 1018.12 1018.08 1018.12 1018.21 1018.35 1018.53 1018.73 1018.95 1019.19 1019.46 1019.74 1020.05 1020.37 1020.72 1021.07 1021.42 1021.79 1022.15 1022.52 1022.89 1023.27 1023.64 1024.00 1024.33 1024.64 1024.91
1018.55 1018.63 1018.68 1018.71 1018.74 1018.81 1018.90 1019.02 1019.14 1019.24 1019.28 1019.26 1019.16 1018.99 1018.78 1018.56 1018.35 1018.18 1018.07 1018.03 1018.05 1018.12 1018.24 1018.40 1018.59 1018.81 1019.05 1019.33 1019.62 1019.94 1020.28 1020.63 1021.00 1021.37 1021.76 1022.16 1022.57 1022.98 1023.39 1023.79 1024.16 1024.50 1024.81
1018.66 1018.79 1018.88 1018.96 1019.05 1019.15 1019.25 1019.37 1019.47 1019.54 1019.56 1019.51 1019.39 1019.21 1018.98 1018.74 1018.50 1018.28 1018.12 1018.00 1017.95 1017.94 1018.00 1018.09 1018.24 1018.42 1018.64 1018.89 1019.17 1019.47 1019.80 1020.15 1020.52 1020.90 1021.30 1021.72 1022.16 1022.61 1023.06 1023.49 1023.90 1024.29 1024.63
1018.81 1018.96 1019.10 1019.23 1019.37 1019.50 1019.61 1019.72 1019.80 1019.83 1019.81 1019.74 1019.61 1019.42 1019.19 1018.95 1018.69 1018.45 1018.24 1018.07 1017.94 1017.87 1017.84 1017.87 1017.95 1018.08 1018.25 1018.47 1018.72 1019.00 1019.31 1019.65 1020.01 1020.39 1020.80 1021.23 1021.68 1022.15 1022.63 1023.11 1023.56 1023.99 1024.38
1019.00 1019.16 1019.33 1019.50 1019.67 1019.82 1019.94 1020.03 1020.08 1020.08 1020.03 1019.94 1019.80 1019.62 1019.41 1019.18 1018.94 1018.70 1018.47 1018.25 1018.07 1017.92 1017.82 1017.77 1017.77 1017.83 1017.94 1018.11 1018.32 1018.56 1018.84 1019.15 1019.49 1019.86 1020.26 1020.69 1021.15 1021.64 1022.13 1022.64 1023.13 1023.60 1024.03
1019.23 1019.38 1019.56 1019.75 1019.93 1020.09 1020.21 1020.28 1020.30 1020.27 1020.20 1020.09 1019.96 1019.80 1019.63 1019.44 1019.24 1019.02 1018.78 1018.55 1018.32 1018.11 1017.93 1017.80 1017.72 1017.70 1017.74 1017.84 1017.99 1018.18 1018.41 1018.68 1018.98 1019.32 1019.70 1020.12 1020.57 1021.06 1021.57 1022.08 1022.60 1023.10 1023.58
1019.47 1019.59 1019.76 1019.95 1020.13 1020.28 1020.39 1020.44 1020.43 1020.38 1020.29 1020.19 1020.08 1019.96 1019.84 1019.71 1019.56 1019.38 1019.17 1018.93 1018.67 1018.41 1018.17 1017.96 1017.79 1017.69 1017.64 1017.66 1017.74 1017.86 1018.03 1018.24 1018.50 1018.79 1019.13 1019.52 1019.95 1020.42 1020.92 1021.44 1021.98 1022.50 1023.01
1019.69 1019.77 1019.91 1020.08 1020.25 1020.38 1020.47 1020.50 1020.48 1020.41 1020.33 1020.24 1020.16 1020.09 1020.03 1019.96 1019.87 1019.74 1019.56 1019.33 1019.06 1018.77 1018.47 1018.19 1017.95 1017.76 1017.63 1017.56 1017.55 1017.60 1017.69 1017.83 1018.02 1018.26 1018.55 1018.89 1019.28 1019.72 1020.21 1020.72 1021.25 1021.78 1022.31
1019.85 1019.89 1020.00 1020.14 1020.29 1020.40 1020.47 1020.48 1020.45 1020.38 1020.30 1020.24 1020.19 1020.17 1020.17 1020.16 1020.12 1020.04 1019.89 1019.68 1019.41 1019.11 1018.78 1018.45 1018.15 1017.88 1017.68 1017.52 1017.43 1017.38 1017.39 1017.45 1017.56 1017.73 1017.96 1018.24 1018.58 1018.98 1019.43 1019.92 1020.43 1020.97 1021.50
1019.95 1019.95 1020.03 1020.14 1020.26 1020.36 1020.41 1020.41 1020.37 1020.30 1020.24 1020.19 1020.18 1020.20 1020.23 1020.27 1020.28 1020.23 1020.12 1019.93 1019.67 1019.36 1019.02 1018.67 1018.32 1018.01 1017.74 1017.51 1017.33 1017.20 1017.13 1017.10 1017.13 1017.22 1017.37 1017.59 1017.88 1018.23 1018.63 1019.08 1019.57 1020.08 1020.61
1019.96 1019.95 1020.00 1020.09 1020.18 1020.26 1020.30 1020.29 1020.25 1020.19 1020.13 1020.11 1020.11 1020.15 1020.21 1020.27 1020.30 1020.28 1020.19 1020.02 1019.79 1019.49 1019.16 1018.80 1018.45 1018.11 1017.79 1017.51 1017.26 1017.06 1016.90 1016.79 1016.73 1016.75 1016.83 1016.98 1017.20 1017.49 1017.84 1018.24 1018.69 1019.17 1019.67
1019.93 1019.90 1019.93 1020.00 1020.08 1020.13 1020.16 1020.14 1020.10 1020.04 1020.00 1019.98 1019.99 1020.03 1020.10 1020.16 1020.19 1020.18 1020.10 1019.96 1019.74 1019.48 1019.17 1018.84 1018.49 1018.15 1017.82 1017.50 1017.21 1016.94 1016.71 1016.52 1016.39 1016.33 1016.34 1016.42 1016.58 1016.81 1017.10 1017.45 1017.85 1018.29 1018.76
1019.85 1019.82 1019.84 1019.89 1019.95 1019.98 1019.99 1019.97 1019.92 1019.86 1019.82 1019.80 1019.81 1019.84 1019.89 1019.94 1019.96 1019.94 1019.87 1019.74 1019.56 1019.32 1019.06 1018.77 1018.46 1018.14 1017.81 1017.49 1017.16 1016.85 1016.56 1016.31 1016.12 1015.99 1015.93 1015.95 1016.05 1016.23 1016.46 1016.76 1017.10 1017.48 1017.90
1019.76 1019.73 1019.74 1019.77 1019.80 1019.81 1019.80 1019.76 1019.70 1019.64 1019.60 1019.57 1019.57 1019.58 1019.61 1019.64 1019.64 1019.60 1019.53 1019.41 1019.25 1019.06 1018.84 1018.60 1018.34 1018.06 1017.76 1017.44 1017.10 1016.77 1016.44 1016.14 1015.90 1015.71 1015.60 1015.58 1015.62 1015.74 1015.93 1016.16 1016.45 1016.78 1017.15
1019.66 1019.63 1019.62 1019.62 1019.62 1019.60 1019.56 1019.50 1019.44 1019.37 1019.32 1019.29 1019.28 1019.28 1019.28 1019.28 1019.26 1019.21 1019.12 1019.01 1018.88 1018.72 1018.55 1018.36 1018.14 1017.90 1017.63 1017.33 1017.00 1016.66 1016.31 1015.99 1015.70 1015.48 1015.34 1015.27 1015.27 1015.35 1015.48 1015.67 1015.90 1016.17 1016.48
1019.54 1019.50 1019.47 1019.44 1019.40 1019.35 1019.28 1019.20 1019.12 1019.05 1019.00 1018.96 1018.95 1018.94 1018.92 1018.90 1018.86 1018.79 1018.70 1018.59 1018.47 1018.34 1018.20 1018.04 1017.87 1017.66 1017.42 1017.14 1016.82 1016.48 1016.13 1015.80 1015.50 1015.26 1015.09 1014.99 1014.96 1015.00 1015.09 1015.23 1015.40 1015.61 1015.86
1019.40 1019.35 1019.28 1019.22 1019.14 1019.05 1018.95 1018.85 1018.76 1018.69 1018.63 1018.60 1018.59 1018.57 1018.56 1018.52 1018.47 1018.38 1018.28 1018.17 1018.04 1017.92 1017.79 1017.66 1017.50 1017.32 1017.10 1016.83 1016.53 1016.20 1015.86 1015.53 1015.23 1014.99 1014.80 1014.69 1014.64 1014.64 1014.69 1014.78 1014.90 1015.05 1015.25
1019.22 1019.15 1019.06 1018.96 1018.84 1018.72 1018.59 1018.47 1018.36 1018.29 1018.24 1018.22 1018.21 1018.20 1018.19 1018.15 1018.09 1017.99 1017.88 1017.75 1017.61 1017.47 1017.33 1017.19 1017.04 1016.86 1016.64 1016.39 1016.10 1015.79 1015.47 1015.15 1014.87 1014.63 1014.45 1014.33 1014.25 1014.23 1014.24 1014.28 1014.34 1014.44 1014.58
1019.00 1018.91 1018.80 1018.67 1018.53 1018.37 1018.22 1018.07 1017.96 1017.88 1017.83 1017.82 1017.82 1017.83 1017.82 1017.79 1017.72 1017.61 1017.48 1017.32 1017.16 1016.99 1016.82 1016.65 1016.47 1016.27 1016.05 1015.81 1015.53 1015.24 1014.94 1014.66 1014.40 1014.18 1014.01 1013.88 1013.80 1013.74 1013.71 1013.69 1013.70 1013.74 1013.82
1018.74 1018.65 1018.53 1018.38 1018.22 1018.04 1017.86 1017.70 1017.57 1017.48 1017.44 1017.43 1017.44 1017.45 1017.45 1017.41 1017.34 1017.22 1017.06 1016.87 1016.67 1016.46 1016.24 1016.03 1015.81 1015.58 1015.35 1015.10 1014.84 1014.57 1014.30 1014.06 1013.84 1013.65 1013.50 1013.37 1013.27 1013.18 1013.10 1013.03 1012.98 1012.95 1012.97
1018.46 1018.37 1018.25 1018.11 1017.93 1017.73 1017.54 1017.36 1017.21 1017.11 1017.06 1017.04 1017.05 1017.06 1017.05 1017.02 1016.93 1016.79 1016.61 1016.39 1016.14 1015.88 1015.61 1015.34 1015.08 1014.82 1014.56 1014.30 1014.05 1013.81 1013.59 1013.39 1013.21 1013.06 1012.93 1012.82 1012.70 1012.59 1012.46 1012.33 1012.21 1012.11 1012.06
1018.18 1018.11 1018.00 1017.85 1017.67 1017.47 1017.26 1017.06 1016.90 1016.77 1016.70 1016.67 1016.66 1016.66 1016.64 1016.59 1016.49 1016.33 1016.12 1015.86 1015.57 1015.25 1014.93 1014.61 1014.30 1014.01 1013.73 1013.47 1013.24 1013.03 1012.85 1012.69 1012.56 1012.45 1012.36 1012.25 1012.14 1011.99 1011.83 1011.64 1011.45 1011.27 1011.14
1017.90 1017.84 1017.75 1017.61 1017.43 1017.22 1017.00 1016.79 1016.60 1016.45 1016.35 1016.29 1016.26 1016.24 1016.20 1016.13 1016.00 1015.82 1015.58 1015.29 1014.96 1014.61 1014.24 1013.88 1013.53 1013.21 1012.92 1012.66 1012.44 1012.26 1012.11 1012.01 1011.93 1011.86 1011.79 1011.71 1011.59 1011.43 1011.23 1010.99 1010.73 1010.48 1010.28
1017.62 1017.57 1017.48 1017.35 1017.17 1016.96 1016.73 1016.51 1016.30 1016.14 1016.01 1015.92 1015.86 1015.80 1015.74 1015.64 1015.49 1015.28 1015.02 1014.70 1014.35 1013.96 1013.56 1013.17 1012.80 1012.45 1012.15 1011.89 1011.68 1011.53 1011.42 1011.35 1011.31 1011.29 1011.25 1011.18 1011.07 1010.91 1010.68 1010.40 1010.09 1009.78 1009.50
Thickness
5719 5718 5717 5717 5717 5718 5717 5717 5717 5717 5719 5720 5720 5721 5722 5723 5724 5725 5726 5726 5727 5727 5726 5725 5724 5723 5723 5722 5722 5722 5721 5721 5720 5719 5718 5718 5717 5717 5716 5715 5715 5714 5713
5714 5714 5714 5713 5713 5713 5713 5713 5713 5714 5715 5716 5717 5718 5719 5720 5721 5722 5723 5724 5724 5725 5725 5724 5723 5722 5721 5721 5720 5720 5720 5720 5719 5718 5718 5717 5716 5716 5715 5715 5714 5713 5713
5709 5709 5709 5709 5708 5709 5709 5709 5709 5709 5710 5712 5713 5714 5715 5717 5718 5719 5720 5721 5722 5722 5722 5722 5721 5720 5719 5719 5719 5719 5719 5719 5718 5717 5717 5716 5715 5715 5714 5714 5713 5713 5712
5705 5704 5704 5703 5703 5704 5704 5704 5705 5704 5705 5706 5707 5709 5710 5712 5714 5715 5717 5718 5719 5719 5720 5719 5719 5718 5718 5718 5717 5717 5717 5717 5717 5716 5716 5715 5715 5714 5714 5713 5713 5712 5712
5700 5699 5699 5698 5699 5699 5699 5699 5699 5699 5699 5700 5702 5704 5705 5707 5709 5711 5712 5714 5716 5716 5716 5717 5717 5716 5716 5716 5716 5716 5715 5715 5716 5715 5715 5714 5714 5713 5713 5712 5712 5712 5711
5694 5694 5694 5693 5693 5693 5693 5693 5693 5694 5694 5695 5697 5699 5701 5703 5705 5706 5708 5710 5711 5713 5713 5714 5714 5715 5715 5714 5714 5715 5714 5714 5714 5714 5714 5714 5713 5712 5712 5712 5711 5711 5711
5689 5689 5688 5688 5688 5687 5687 5688 5688 5688 5688 5689 5689 5690 5694 5697 5699 5700 5703 5705 5707 5708 5709 5710 5711 5712 5713 5713 5713 5713 5713 5713 5713 5713 5713 5713 5712 5711 5711 5711 5711 5710 5710
5684 5684 5683 5682 5682 5681 5681 5682 5682 5681 5681 5682 5682 5681 5681 5685 5690 5694 5697 5699 5701 5702 5704 5705 5707 5708 5709 5710 5711 5711 5711 5711 5712 5712 5712 5711 5711 5711 5711 5710 5710 5710 5709
5679 5678 5677 5677 5676 5676 5675 5675 5675 5675 5674 5675 5676 5675 5673 5673 5678 5684 5688 5691 5694 5696 5698 5700 5702 5703 5705 5706 5708 5709 5709 5710 5710 5710 5710 5710 5710 5710 5710 5710 5709 5709 5709
5674 5673 5672 5671 5670 5670 5669 5669 5669 5669 5668 5667 5668 5669 5669 5670 5669 5671 5677 5682 5685 5688 5691 5693 5696 5698 5700 5701 5703 5705 5706 5707 5708 5708 5709 5709 5710 5709 5709 5709 5709 5708 5708
5668 5667 5667 5665 5665 5664 5663 5663 5663 5662 5662 5662 5661 5662 5662 5663 5663 5664 5665 5670 5675 5680 5683 5686 5688 5691 5694 5696 5698 5700 5702 5704 5705 5706 5707 5708 5708 5709 5709 5708 5708 5708 5708
5663 5662 5661 5660 5659 5658 5658 5657 5657 5656 5656 5655 5655 5655 5655 5655 5656 5656 5657 5659 5663 5670 5674 5678 5681 5684 5687 5690 5692 5695 5697 5699 5701 5703 5704 5706 5707 5707 5708 5708 5708 5707 5707
5658 5657 5657 5655 5654 5654 5653 5652 5652 5651 5650 5650 5649 5649 5649 5649 5650 5650 5650 5651 5653 5658 5664 5669 5673 5675 5679 5682 5685 5688 5691 5693 5696 5698 5701 5703 5704 5705 5706 5707 5707 5707 5707
5655 5654 5653 5652 5650 5649 5648 5647 5646 5645 5645 5644 5644 5643 5642 5643 5643 5644 5644 5644 5644 5648 5652 5658 5663 5666 5669 5672 5676 5679 5683 5686 5690 5692 5695 5698 5701 5702 5704 5705 5706 5706 5706
5653 5652 5650 5648 5646 5645 5643 5642 5641 5640 5639 5638 5637 5637 5636 5637 5637 5637 5637 5637 5637 5638 5642 5647 5652 5657 5660 5663 5667 5670 5674 5678 5682 5685 5689 5692 5695 5698 5701 5702 5703 5704 5705
5651 5649 5647 5645 5643 5641 5639 5638 5636 5635 5633 5632 5631 5630 5630 5630 5630 5630 5629 5630 5630 5631 5633 5638 5641 5645 5649 5653 5657 5661 5665 5670 5674 5678 5681 5686 5689 5693 5696 5698 5700 5701 5702
5649 5647 5645 5642 5640 5638 5636 5634 5632 5630 5629 5627 5626 5625 5624 5623 5623 5623 5622 5622 5622 5623 5625 5630 5632 5635 5639 5643 5648 5652 5657 5661 5666 5670 5674 5678 5683 5686 5690 5693 5695 5697 5699
5648 5645 5643 5640 5637 5635 5633 5630 5628 5626 5624 5622 5620 5619 5618 5617 5616 5615 5615 5614 5614 5615 5616 5620 5623 5625 5629 5633 5638 5642 5647 5652 5657 5662 5667 5671 5675 5679 5683 5687 5690 5692 5695
5647 5644 5641 5638 5635 5632 5629 5627 5624 5622 5619 5617 5615 5613 5612 5610 5609 5608 5607 5607 5607 5608 5607 5609 5613 5615 5619 5622 5626 5631 5636 5641 5647 5652 5658 5663 5668 5672 5676 5680 5684 5687 5690
5645 5643 5639 5636 5633 5630 5627 5624 5621 5618 5615 5612 5610 5608 5606 5604 5603 5602 5601 5600 5599 5599 5599 5600 5603 5605 5608 5611 5614 5619 5625 5630 5636 5642 5648 5653 5658 5663 5668 5673 5678 5682 5685
5645 5641 5637 5634 5631 5627 5625 5621 5618 5615 5611 5608 5606 5603 5601 5600 5598 5596 5595 5594 5592 5592 5591 5592 5594 5595 5598 5600 5603 5608 5612 5618 5625 5631 5637 5643 5649 5655 5659 5665 5670 5675 5679
5642 5639 5635 5632 5628 5626 5623 5619 5615 5611 5607 5604 5601 5599 5596 5595 5594 5592 5590 5589 5587 5585 5585 5585 5586 5587 5590 5591 5593 5596 5600 5605 5613 5620 5624 5632 5638 5645 5651 5657 5663 5669 5673
5640 5636 5633 5629 5626 5623 5620 5616 5612 5608 5604 5601 5597 5594 5592 5591 5588 5586 5584 5583 5582 5581 5580 5579 5580 5581 5582 5584 5585 5588 5590 5595 5602 5609 5612 5622 5628 5635 5643 5650 5656 5662 5667
5637 5634 5631 5628 5624 5622 5619 5615 5610 5606 5602 5598 5594 5591 5587 5585 5583 5580 5578 5577 5576 5575 5574 5574 5574 5575 5575 5575 5576 5579 5582 5586 5593 5598 5602 5610 5619 5626 5634 5642 5649 5654 5660
5636 5632 5629 5625 5622 5620 5617 5613 5608 5603 5599 5596 5592 5588 5584 5581 5579 5575 5572 5571 5570 5570 5569 5569 5569 5568 5568 5568 5569 5570 5573 5577 5585 5591 5595 5601 5610 5616 5625 5633 5641 5647 5653
5634 5630 5627 5624 5621 5618 5615 5611 5606 5600 5596 5593 5590 5586 5582 5578 5575 5571 5567 5566 5565 5566 5564 5563 5562 5562 5562 5562 5563 5564 5567 5570 5576 5583 5589 5593 5601 5606 5615 5625 5631 5637 5644